Regional Weather Roundup
Issued by NWS

Home | Current Version | Previous Version | Text Only | Print | Product List | Glossary Off
Versions: 1 2 3 4 5 6 7 8 9 10 11 12 13 14 15 16 17 18 19 20 21 22 23 24 25 26 27 28 29 30 31 32 33 34 35 36 37 38 39 40 41 42 43 44 45 46 47 48 49 50

000
ASUS45 KPSR 270310
RWRAZ

ARIZONA HOURLY REGIONAL WEATHER ROUNDUP
NATIONAL WEATHER SERVICE PHOENIX AZ
800 PM MST SUN MAR 26 2017

NOTE: FAIR INDICATES FEW OR NO CLOUDS BELOW 12,000 FEET WITH NO
SIGNIFICANT WEATHER AND/OR OBSTRUCTIONS TO VISIBILITY.

AZZ001>003-036-270400-
NORTHWEST ARIZONA

CITY           SKY/WX    TMP DP  RH WIND       PRES   REMARKS
BULLHEAD CITY  MOCLDY    77  30  18 SE8       29.85S
KINGMAN        PTCLDY    56  20  24 S9        29.97S
$$

AZZ004>008-015-016-018-270400-
NORTH CENTRAL ARIZONA

CITY           SKY/WX    TMP DP  RH WIND       PRES   REMARKS
GRAND CANYON   PTCLDY    37  31  78 CALM      30.07R
WILLIAMS       CLEAR     46  27  46 SW6       30.08R
PRESCOTT       CLEAR     54  28  36 S7        30.03R
FLAGSTAFF      CLEAR     44  24  45 SW7       30.07R
PAYSON         PTCLDY    54  28  37 W6        30.07R
PAGE           CLOUDY    60  35  39 W6        29.96R
$$

AZZ009>014-017-270400-
NORTHEAST ARIZONA

CITY           SKY/WX    TMP DP  RH WIND       PRES   REMARKS
WINSLOW        MOCLDY    58  21  24 W3        30.00R
SAINT JOHNS    MOCLDY    52  10  18 W3        30.02R
WINDOW ROCK    CLOUDY    46  29  51 S6        30.05R
SHOW LOW       PTCLDY    46  23  39 S10       30.08R
$$

AZZ023-270400-
GREATER PHOENIX AREA

CITY           SKY/WX    TMP DP  RH WIND       PRES   REMARKS
PHOENIX        MOCLDY    77  28  16 NW6       29.88R
BUCKEYE        CLEAR     70  36  28 CALM      29.89R
LUKE AFB       CLEAR     74  34  23 SW3       29.87S
DEER VALLEY    CLEAR     70  32  24 SE5       29.89R
SCOTTSDALE     CLEAR     73  31  21 CALM      29.91S
MESA-FALCON    PTCLDY   N/A N/A N/A NW6       29.88R
MESA-GATEWAY   PTCLDY    72  28  20 N6        29.91R
$$

AZZ027-028-270400-
SOUTHWEST MARICOPA COUNTY AND PINAL COUNTY

CITY           SKY/WX    TMP DP  RH WIND       PRES   REMARKS
CASA GRANDE    NOT AVBL
GILA BEND      FAIR      73  28  19 W6        29.88R
$$

AZZ503-504-507>509-270400-
SOUTHEAST ARIZONA

CITY           SKY/WX    TMP DP  RH WIND       PRES   REMARKS
TUCSON         CLEAR     70  24  17 N6        29.96R
DAVIS-MONTHAN  CLEAR     68  24  19 NW6       29.95R
RYAN FIELD     CLEAR     70  25  18 NW5       29.95R
NOGALES        PTCLDY    64  26  23 CALM      30.00R
SIERRA VISTA   CLEAR     59  24  26 W8        30.04R
DOUGLAS        CLEAR     63  24  22 NW15      30.00R
SAFFORD        CLEAR     65  23  20 NW12      29.94R
$$

AZZ020-021-025-026-031-270400-
SOUTHWEST ARIZONA

CITY           SKY/WX    TMP DP  RH WIND       PRES   REMARKS
YUMA           CLEAR     75  38  26 S5        29.87R
$$

CAZ031-033-041-043-047-048-061-270400-
SOUTHERN CALIFORNIA

CITY           SKY/WX    TMP DP  RH WIND       PRES   REMARKS
DOWNTOWN L.A.  PTCLDY    61  52  72 VRB3      30.02R
L.A. AIRPORT   PTCLDY    59  54  83 SW9       30.02S
SAN DIEGO      PTCLDY    61  51  70 W6        30.05R
BURBANK        PTCLDY    60  47  61 S5        30.01R
ONTARIO        MOCLDY    61  51  70 W7        30.01R
RIVERSIDE      CLEAR     60  52  74 W9        30.01R
PALM SPRINGS   CLEAR     73  46  38 NW20      29.89S
EL CENTRO NAS  CLEAR     73  42  32 W17       29.89R
IMPERIAL       CLEAR     72  47  40 W14       29.86R
BLYTHE         CLEAR     76  35  22 SE5       29.86S
NEEDLES        PTCLDY    76  30  18 W7        29.87R
$$

NVZ020-UTZ003-270400-
SOUTHERN NEVADA-UTAH

CITY           SKY/WX    TMP DP  RH WIND       PRES   REMARKS
LAS VEGAS      MOCLDY    71  24  17 SW8       29.86S
SALT LAKE CITY CLOUDY    51  32  48 SE7       29.95F
$$

NMZ009-TXZ055-270400-
NEW MEXICO-WEST TEXAS

CITY           SKY/WX    TMP DP  RH WIND       PRES   REMARKS
ALBUQUERQUE    PTCLDY    58  22  24 N8        29.99R
EL PASO        PTCLDY    68  16  13 NW10      29.94R
$$


........................KEY........................
SKY/WX - SKY CONDITION/WEATHER
TMP    - TEMPERATURE IN FAHRENHEIT
DP     - DEW POINT IN FAHRENHEIT
RH     - RELATIVE HUMIDITY IN PERCENT
WIND   - DIRECTION AND SPEED IN MILES PER HOUR (MPH)
VRB    - VARIABLE WIND DIRECTION
PRES   - MEAN SEA LEVEL PRESSURE IN INCHES OF MERCURY
         F - FALLING PRESSURE   R - RISING PRESSURE
         S - STEADY PRESSURE
VSB    - VISIBILITY IN MILES
HX     - HEAT INDEX IN FAHRENHEIT
WCI    - WIND CHILL INDEX IN FAHRENHEIT
TC     - TEMPERATURE IN CELSIUS WHICH IS ALSO KNOWN AS
         TEMPERATURE IN CENTIGRADE
AFB    - AIR FORCE BASE
         LUKE AFB IS LUKE AIR FORCE BASE
         DAVIS-MONTHAN IS DAVIS-MONTHAN AIR FORCE BASE
NAS    - NAVAL AIR STATION
         EL CENTRO NAS IS EL CENTRO NAVAL AIR STATION
N/A    - NOT AVAILABLE




USA.gov is the U.S. government's official web portal to all federal, state and local government web resources and services.